Location: Blue Sky Observatory
(43.1153°N, 70.9036°W)
Time: 07:01:27
(UTC-05:00)

Amateur Radio Satellites - All Passes

Search period start: 21 November 2014 06:31
Search period end: 22 November 2014 06:31
Location: Blue Sky Observatory, 43.1153°N, 70.9036°W

Satellite Date Start Highest point End Downlink Frequencies (MHz)
Time Altitude Azimuth
STRAND 1 21 Nov 06:40:42 06:45:07 28° 265° (W) 06:49:32 437.568
PCSat 21 Nov 06:44:26 06:48:49 25° 252° (WSW) 06:53:10 145.827
CUBESAT XI-V 21 Nov 06:45:20 06:49:05 23° 267° (W) 06:52:52 437.345
Cubesat XI-IV 21 Nov 06:50:49 06:55:54 46° 291° (WNW) 07:00:57 437.490
AIST 1 21 Nov 06:51:25 06:55:49 66° 80° (E) 07:00:09
ISS 21 Nov 06:57:10 07:00:28 74° 31° (NNE) 07:03:47 145.825
O/OREOS (USA 219) 21 Nov 06:59:33 07:04:01 67° 295° (WNW) 07:08:30 437.305
BEESAT 3 21 Nov 07:05:06 07:07:59 18° 249° (WSW) 07:10:50 437.485
GONETS M04 21 Nov 07:10:21 07:17:22 28° 81° (E) 07:24:24
SO-50 21 Nov 07:12:25 07:13:36 11° 332° (NNW) 07:14:48 436.795
BEESAT 2 21 Nov 07:16:18 07:18:49 16° 250° (WSW) 07:21:19 435.950
AIST 2 21 Nov 07:25:35 07:29:05 25° 247° (WSW) 07:32:32 435.215
JAS-2 21 Nov 07:29:38 07:33:00 14° 311° (NW) 07:36:14 435.910
CUTE 1.7 & AOD 2 21 Nov 07:34:14 07:36:02 12° 90° (E) 07:37:50 437.475
CUTE-I 21 Nov 07:34:42 07:38:36 21° 298° (WNW) 07:42:29 437.470
GOMX 1 21 Nov 07:57:41 07:59:58 14° 91° (E) 08:02:16 467.674
BRITE-PL 21 Nov 07:57:53 08:01:00 20° 93° (E) 08:04:04 437.365/2234.400
HO-68 21 Nov 08:03:03 08:09:35 36° 97° (E) 08:16:04 435.675
SEEDS 21 Nov 08:12:44 08:16:26 28° 96° (E) 08:20:07 437.485
DUCHIFAT 1 21 Nov 08:27:14 08:28:59 12° 61° (ENE) 08:30:43 145.980
ANTELSAT 21 Nov 08:28:56 08:31:51 18° 64° (ENE) 08:34:45 437.575/2403.000
AIST 1 21 Nov 08:31:32 08:32:51 11° 277° (W) 08:34:10
CANX-2 21 Nov 08:32:41 08:36:55 59° 101° (E) 08:41:09 2200.000
ISS 21 Nov 08:34:50 08:36:45 15° 228° (SW) 08:38:40 145.825
AAUSAT CUBESAT 2 21 Nov 08:40:25 08:44:27 42° 98° (E) 08:48:28 437.432
NANOSAT C BR1 21 Nov 08:44:20 08:47:17 19° 65° (ENE) 08:50:15 145.865
COMPASS 1 21 Nov 08:51:46 08:56:00 65° 101° (E) 09:00:12 437.405
QB50P1 21 Nov 08:53:00 08:56:21 23° 66° (ENE) 08:59:41 145.935-145.965
CINEMA 3 21 Nov 08:55:58 08:59:37 29° 96° (E) 09:03:19 145.822/145.860
GONETS M04 21 Nov 09:04:43 09:13:26 67° 282° (WNW) 09:22:16
FUNcube-1 21 Nov 09:06:08 09:09:00 18° 93° (E) 09:11:54 145.935
CUBEBUG 2 21 Nov 09:06:27 09:09:53 24° 95° (E) 09:13:22 437.445
CUTE 1.7 & AOD 2 21 Nov 09:08:08 09:12:22 61° 286° (WNW) 09:16:35 437.475
UKube-1 21 Nov 09:11:16 09:15:23 40° 99° (E) 09:19:28 .
DELFI C3 21 Nov 09:12:57 09:16:53 41° 98° (E) 09:20:48 145.870
POPSAT HIP 1 21 Nov 09:16:18 09:20:16 39° 71° (ENE) 09:24:15 437.405
DOVE 4 21 Nov 09:17:00 09:21:10 83° 103° (ESE) 09:25:22 437.250
UWE-3 21 Nov 09:17:56 09:21:34 28° 96° (E) 09:25:14 435.000/436.395/437.385
50 SAT 21 Nov 09:19:32 09:21:08 12° 90° (E) 09:22:45 437.505
TIGRISAT 21 Nov 09:25:21 09:29:36 69° 75° (ENE) 09:33:51 435.000
Oscar 11 21 Nov 09:26:35 09:30:56 70° 102° (ESE) 09:35:16 145.826/435.025
BUGSAT 1 21 Nov 09:31:12 09:35:18 47° 72° (ENE) 09:39:24 437.445
GOMX 1 21 Nov 09:34:26 09:38:25 46° 288° (WNW) 09:42:24 467.674
UNISAT 6 21 Nov 09:35:53 09:40:11 89° 261° (W) 09:44:29 437.425
BRITE-PL 21 Nov 09:35:54 09:39:40 33° 290° (WNW) 09:43:22 437.365/2234.400
DX 1 21 Nov 09:41:14 09:45:37 89° 104° (ESE) 09:49:57 434.975-435.025
POLYITAN 1 21 Nov 09:46:08 09:50:25 84° 76° (ENE) 09:54:42 437.675
VELOX 1 21 Nov 09:47:27 09:51:27 32° 97° (E) 09:55:24 145.980
SEEDS 21 Nov 09:48:38 09:52:12 26° 292° (WNW) 09:55:45 437.485
QB50P2 21 Nov 09:50:23 09:54:40 87° 257° (WSW) 09:58:58 145.880/145.840
HO-68 21 Nov 09:50:37 09:57:23 46° 295° (WNW) 10:04:07 435.675
DUCHIFAT 1 21 Nov 10:00:03 10:04:18 70° 258° (WSW) 10:08:34 145.980
ANTELSAT 21 Nov 10:04:16 10:08:22 43° 261° (W) 10:12:27 437.575/2403.000
ZACube-1 21 Nov 10:04:47 10:09:00 81° 103° (ESE) 10:13:15 437.345
AISAT 21 Nov 10:10:02 10:14:25 57° 101° (E) 10:18:46 437.250
CANX-2 21 Nov 10:10:09 10:12:23 14° 297° (WNW) 10:14:38 2200.000
AAUSAT CUBESAT 2 21 Nov 10:16:57 10:19:50 18° 295° (WNW) 10:22:43 437.432
NANOSAT C BR1 21 Nov 10:18:49 10:22:53 42° 261° (W) 10:26:57 145.865
QB50P1 21 Nov 10:28:11 10:32:04 34° 263° (W) 10:35:58 145.935-145.965
HUMSAT D 21 Nov 10:28:22 10:32:31 90° 104° (ESE) 10:36:42 437.325/437.525
COMPASS 1 21 Nov 10:29:20 10:31:12 13° 298° (WNW) 10:33:05 437.405
CINEMA 3 21 Nov 10:33:22 10:36:45 24° 292° (WNW) 10:40:10 145.822/145.860
Oscar 19 21 Nov 10:40:22 10:40:24 10° 55° (NE) 10:40:27 437.125/150
FUNcube-1 21 Nov 10:41:37 10:45:33 40° 289° (WNW) 10:49:31 145.935
CUBEBUG 2 21 Nov 10:42:58 10:46:37 29° 291° (WNW) 10:50:18 437.445
CUBEBUG 1 21 Nov 10:43:11 10:47:26 46° 99° (E) 10:51:36 437.445
UKube-1 21 Nov 10:48:07 10:51:17 20° 296° (WNW) 10:54:26 .
DELFI C3 21 Nov 10:49:06 10:51:54 18° 295° (WNW) 10:54:41 145.870
50 SAT 21 Nov 10:52:51 10:56:50 56° 286° (WNW) 11:00:48 437.505
POPSAT HIP 1 21 Nov 10:53:15 10:56:20 19° 267° (W) 10:59:25 437.405
SPROUT 21 Nov 10:54:16 10:56:30 14° 91° (E) 10:58:44 437.525
UWE-3 21 Nov 10:54:35 10:58:03 26° 292° (WNW) 11:01:34 435.000/436.395/437.385
TISAT 1 21 Nov 11:00:34 11:03:31 18° 93° (E) 11:06:26 437.305
ESTCUBE 1 21 Nov 11:03:03 11:07:38 80° 103° (ESE) 11:12:10 437.505/2401.250
Oscar 11 21 Nov 11:04:43 11:06:32 13° 299° (WNW) 11:08:22 145.826/435.025
TIGRISAT 21 Nov 11:05:51 11:06:50 11° 271° (W) 11:07:48 435.000
GONETS M04 21 Nov 11:07:54 11:12:15 14° 305° (NW) 11:16:39
BUGSAT 1 21 Nov 11:08:26 11:11:03 16° 268° (W) 11:13:41 437.445
DX 1 21 Nov 11:20:43 11:21:09 10° 301° (WNW) 11:21:35 434.975-435.025
ITAMSAT 1 21 Nov 11:21:10 11:21:38 10° 55° (NE) 11:22:06 435.822/435.867
VELOX 1 21 Nov 11:24:16 11:27:54 25° 294° (WNW) 11:31:31 145.980
SHINDAISAT 21 Nov 11:30:01 11:31:48 29° 307° (NW) 11:33:37 437.305
YUBILEINY 21 Nov 11:30:42 11:34:10 13° 53° (NE) 11:37:37 435.215
M-CUBED/EXP-1 PRIME 21 Nov 11:34:34 11:35:05 10° 92° (E) 11:35:36 437.505
ZACube-1 21 Nov 11:44:10 11:44:46 10° 299° (WNW) 11:45:22 437.345
AISAT 21 Nov 11:48:01 11:50:36 15° 298° (WNW) 11:53:11 437.250
Oscar 19 21 Nov 12:13:44 12:18:48 71° 73° (ENE) 12:23:55 437.125/150
SO-50 21 Nov 12:17:42 12:22:01 31° 45° (NE) 12:26:21 436.795
CUBEBUG 1 21 Nov 12:20:30 12:23:27 18° 296° (WNW) 12:26:24 437.445
SPROUT 21 Nov 12:28:45 12:32:56 54° 287° (WNW) 12:37:06 437.525
ITUPSAT 1 21 Nov 12:33:00 12:37:07 27° 95° (E) 12:41:11 437.325
TISAT 1 21 Nov 12:35:35 12:39:32 39° 289° (WNW) 12:43:26 437.305
ESTCUBE 1 21 Nov 12:42:05 12:43:52 12° 300° (WNW) 12:45:38 437.505/2401.250
CUSAT 1 21 Nov 12:44:09 12:46:39 25° 96° (E) 12:48:56 437.405
SWISSCUBE 21 Nov 12:45:46 12:50:18 40° 98° (E) 12:54:48 437.505
DANDE 21 Nov 12:47:00 12:49:32 23° 96° (E) 12:51:46 436.750
AO-7 21 Nov 12:51:45 12:56:54 18° 47° (NE) 13:02:04 29.400- 29.500
ITAMSAT 1 21 Nov 12:54:59 13:00:10 69° 73° (ENE) 13:05:22 435.822/435.867
Gurwin Techsat 1B 21 Nov 12:56:56 13:01:53 41° 69° (ENE) 13:06:51 435.225
AUBIESAT-1 21 Nov 13:04:20 13:09:15 75° 107° (ESE) 13:14:08 437.475
M-CUBED/EXP-1 PRIME 21 Nov 13:05:48 13:10:45 83° 108° (ESE) 13:15:40 437.505
BEESAT 21 Nov 13:17:51 13:22:41 78° 103° (ESE) 13:27:28 436.000
YUBILEINY 21 Nov 13:24:29 13:33:08 61° 77° (ENE) 13:41:41 435.215
KKS-1 21 Nov 13:32:13 13:35:46 23° 94° (E) 13:39:18 437.445
HORYU 2 21 Nov 13:45:13 13:49:30 51° 72° (ENE) 13:53:48 437.375
Oscar 19 21 Nov 13:56:00 13:58:40 14° 270° (W) 14:01:22 437.125/150
SO-50 21 Nov 13:58:06 14:02:41 41° 243° (WSW) 14:07:15 436.795
ITUPSAT 1 21 Nov 14:10:41 14:15:02 34° 292° (WNW) 14:19:20 437.325
JAS-2 21 Nov 14:12:10 14:16:36 17° 52° (NE) 14:21:06 435.910
SWISSCUBE 21 Nov 14:24:07 14:27:57 24° 295° (WNW) 14:31:45 437.505
ITAMSAT 1 21 Nov 14:37:10 14:40:09 15° 270° (W) 14:43:09 435.822/435.867
Gurwin Techsat 1B 21 Nov 14:37:33 14:41:58 26° 266° (W) 14:46:25 435.225
STARS 21 Nov 14:38:19 14:42:44 80° 103° (ESE) 14:47:07 437.465
AO-7 21 Nov 14:40:04 14:48:18 72° 68° (ENE) 14:56:35 29.400- 29.500
AUBIESAT-1 21 Nov 14:40:40 14:43:40 17° 304° (NW) 14:46:40 437.475
M-CUBED/EXP-1 PRIME 21 Nov 14:42:26 14:45:09 15° 305° (NW) 14:47:53 437.505
RS-15 21 Nov 14:55:57 15:04:00 24° 102° (ESE) 15:12:00 29.354- 29.394
BEESAT 21 Nov 14:57:33 14:59:53 14° 301° (WNW) 15:02:13 436.000
KKS-1 21 Nov 15:08:28 15:12:29 34° 291° (WNW) 15:16:29 437.445
YUBILEINY 21 Nov 15:22:09 15:29:19 30° 278° (W) 15:36:28 435.215
HORYU 2 21 Nov 15:23:47 15:26:29 16° 268° (W) 15:29:11 437.375
O/OREOS (USA 219) 21 Nov 15:29:37 15:33:33 29° 58° (ENE) 15:37:28 437.305
MOZHAYETS 4 21 Nov 15:37:23 15:40:01 15° 90° (E) 15:42:39
CUTE-I 21 Nov 15:39:39 15:42:37 15° 58° (ENE) 15:45:35 437.470
VERMONT LUNAR 21 Nov 15:42:59 15:45:26 17° 152° (SSE) 15:47:54 437.305
MaSat-1 21 Nov 15:44:14 15:47:18 53° 114° (ESE) 15:50:05 437.345
JAS-2 21 Nov 15:52:47 16:00:11 70° 71° (ENE) 16:08:01 435.910
STARS 21 Nov 16:17:11 16:18:35 11° 300° (WNW) 16:19:58 437.465
Cubesat XI-IV 21 Nov 16:34:06 16:39:09 44° 69° (ENE) 16:44:14 437.490
AO-7 21 Nov 16:35:12 16:41:45 26° 267° (W) 16:48:23 29.400- 29.500
PHONESAT 2.4 21 Nov 16:48:47 16:52:04 29° 159° (SSE) 16:55:20 2401.200-2431.200
PRISM 21 Nov 17:02:40 17:05:52 20° 94° (E) 17:09:03 437.425
RS-15 21 Nov 17:03:53 17:14:52 87° 303° (WNW) 17:25:54 29.354- 29.394
O/OREOS (USA 219) 21 Nov 17:09:03 17:12:53 29° 256° (WSW) 17:16:43 437.305
MOZHAYETS 4 21 Nov 17:13:02 17:17:38 59° 287° (WNW) 17:22:12
STRAND 1 21 Nov 17:13:26 17:14:36 11° 88° (E) 17:15:46 437.568
CUTE-I 21 Nov 17:16:36 17:21:59 83° 256° (WSW) 17:27:23 437.470
GONETS M04 21 Nov 17:19:21 17:23:46 14° 55° (NE) 17:28:10
VERMONT LUNAR 21 Nov 17:19:58 17:23:27 45° 168° (SSE) 17:26:57 437.305
JAS-2 21 Nov 17:39:43 17:45:46 26° 271° (W) 17:52:07 435.910
Cubesat XI-IV 21 Nov 18:14:59 18:19:24 26° 266° (W) 18:23:50 437.490
PHONESAT 2.4 21 Nov 18:26:55 18:30:34 56° 176° (S) 18:34:13 2401.200-2431.200
CUTE 1.7 & AOD 2 21 Nov 18:29:43 18:30:56 11° 61° (ENE) 18:32:10 437.475
HO-68 21 Nov 18:33:02 18:39:10 32° 60° (ENE) 18:45:18 435.675
PRISM 21 Nov 18:37:38 18:41:32 36° 290° (WNW) 18:45:25 437.425
CUBESAT XI-V 21 Nov 18:40:06 18:44:50 84° 103° (ESE) 18:49:29 437.345
STRAND 1 21 Nov 18:49:20 18:54:30 90° 287° (WNW) 18:59:35 437.568
DOVE 4 21 Nov 18:49:49 18:51:04 11° 61° (ENE) 18:52:18 437.250
VERMONT LUNAR 21 Nov 18:58:11 19:01:46 55° 185° (S) 19:05:20 437.305
CUTE-I 21 Nov 19:02:10 19:02:50 10° 273° (W) 19:03:30 437.470
GOMX 1 21 Nov 19:06:23 19:10:06 22° 67° (ENE) 19:13:39 467.674
SEEDS 21 Nov 19:06:41 19:10:01 23° 67° (ENE) 19:13:22 437.485
BRITE-PL 21 Nov 19:09:01 19:13:34 32° 69° (ENE) 19:17:49 437.365/2234.400
SHINDAISAT 21 Nov 19:12:00 19:13:42 27° 52° (NE) 19:15:24 437.305
GONETS M04 21 Nov 19:13:45 19:22:35 67° 79° (ENE) 19:31:18
RS-15 21 Nov 19:19:21 19:28:54 33° 331° (NNW) 19:38:37 29.354- 29.394
AIST 1 21 Nov 19:22:11 19:26:12 37° 91° (E) 19:30:16
CANX-2 21 Nov 19:26:53 19:30:56 48° 72° (ENE) 19:35:00 2200.000
AAUSAT CUBESAT 2 21 Nov 19:33:04 19:36:47 33° 70° (ENE) 19:40:33 437.432
PCSat 21 Nov 19:43:24 19:48:17 36° 111° (ESE) 19:53:12 145.827
COMPASS 1 21 Nov 19:44:33 19:48:35 50° 73° (ENE) 19:52:38 437.405
CINEMA 3 21 Nov 19:59:02 20:03:00 32° 70° (ENE) 20:06:51 145.822/145.860
CUTE 1.7 & AOD 2 21 Nov 20:02:03 20:06:15 75° 258° (WSW) 20:10:30 437.475
DELFI C3 21 Nov 20:03:06 20:06:41 31° 69° (ENE) 20:10:17 145.870
FUNcube-1 21 Nov 20:03:56 20:06:42 17° 65° (ENE) 20:09:27 145.935
PHONESAT 2.4 21 Nov 20:05:37 20:09:11 44° 193° (SSW) 20:12:44 2401.200-2431.200
CUBEBUG 2 21 Nov 20:06:21 20:09:50 24° 68° (ENE) 20:13:15 437.445
UKube-1 21 Nov 20:07:26 20:11:30 40° 70° (ENE) 20:15:36 .
50 SAT 21 Nov 20:11:46 20:12:00 10° 61° (ENE) 20:12:14 437.505
UWE-3 21 Nov 20:16:42 20:20:19 27° 68° (ENE) 20:23:52 435.000/436.395/437.385
HO-68 21 Nov 20:19:29 20:26:30 56° 259° (WSW) 20:33:35 435.675
CUBESAT XI-V 21 Nov 20:19:51 20:21:34 12° 301° (WNW) 20:23:17 437.345
Oscar 11 21 Nov 20:22:20 20:26:34 61° 74° (ENE) 20:30:50 145.826/435.025
DOVE 4 21 Nov 20:23:30 20:28:16 86° 257° (WSW) 20:32:46 437.250
STRAND 1 21 Nov 20:30:41 20:32:55 13° 303° (WNW) 20:35:08 437.568
VERMONT LUNAR 21 Nov 20:36:48 20:39:57 28° 201° (SSW) 20:43:06 437.305
DX 1 21 Nov 20:37:42 20:42:06 88° 76° (ENE) 20:46:31 434.975-435.025
SEEDS 21 Nov 20:42:00 20:45:43 31° 264° (W) 20:49:28 437.485
GOMX 1 21 Nov 20:43:19 20:48:01 42° 261° (W) 20:52:26 467.674
VELOX 1 21 Nov 20:46:26 20:50:28 34° 69° (ENE) 20:54:31 145.980
BRITE-PL 21 Nov 20:47:28 20:52:02 31° 264° (W) 20:56:20 437.365/2234.400
BEESAT 3 21 Nov 20:59:44 21:03:49 69° 121° (ESE) 21:07:58 437.485
AIST 1 21 Nov 21:00:44 21:04:01 20° 289° (WNW) 21:07:19
ZACube-1 21 Nov 21:02:00 21:06:15 72° 75° (ENE) 21:10:26 437.345
CANX-2 21 Nov 21:04:41 21:07:09 15° 269° (W) 21:09:39 2200.000
AISAT 21 Nov 21:09:10 21:13:35 60° 73° (ENE) 21:18:01 437.250
AAUSAT CUBESAT 2 21 Nov 21:09:23 21:12:33 21° 267° (W) 21:15:45 437.432
BEESAT 2 21 Nov 21:11:08 21:15:15 82° 122° (ESE) 21:19:27 435.950
GONETS M04 21 Nov 21:11:37 21:18:38 28° 279° (W) 21:25:38
TIGRISAT 21 Nov 21:17:49 21:19:55 13° 91° (E) 21:22:01 435.000
HUMSAT D 21 Nov 21:21:40 21:25:48 73° 75° (ENE) 21:29:56 437.325/437.525
COMPASS 1 21 Nov 21:22:24 21:24:38 14° 269° (W) 21:26:52 437.405
AIST 2 21 Nov 21:24:07 21:28:14 56° 119° (ESE) 21:32:27 435.215
PCSat 21 Nov 21:26:41 21:31:40 37° 310° (NW) 21:36:41 145.827
UNISAT 6 21 Nov 21:27:59 21:30:57 18° 93° (E) 21:33:56 437.425
POLYITAN 1 21 Nov 21:33:04 21:35:01 13° 90° (E) 21:36:58 437.675
CINEMA 3 21 Nov 21:36:37 21:40:15 24° 265° (W) 21:43:48 145.822/145.860
QB50P2 21 Nov 21:36:47 21:39:07 14° 91° (E) 21:41:25 145.880/145.840
RS-15 21 Nov 21:37:30 21:45:54 24° 6° (N) 21:54:28 29.354- 29.394
FUNcube-1 21 Nov 21:38:41 21:42:45 44° 261° (W) 21:46:47 145.935
DELFI C3 21 Nov 21:38:51 21:42:02 22° 266° (W) 21:45:14 145.870
CUBEBUG 1 21 Nov 21:40:26 21:44:41 45° 71° (ENE) 21:48:56 437.445
CUBEBUG 2 21 Nov 21:42:36 21:46:26 30° 263° (W) 21:50:12 437.445
50 SAT 21 Nov 21:42:40 21:46:43 77° 257° (WSW) 21:50:47 437.505
UKube-1 21 Nov 21:44:42 21:47:50 19° 267° (W) 21:50:59 .
PHONESAT 2.4 21 Nov 21:45:02 21:47:29 17° 209° (SSW) 21:49:56 2401.200-2431.200
DUCHIFAT 1 21 Nov 21:45:36 21:48:27 18° 93° (E) 21:51:18 145.980
SPROUT 21 Nov 21:50:18 21:52:30 14° 62° (ENE) 21:54:41 437.525
UWE-3 21 Nov 21:53:10 21:56:49 27° 264° (W) 22:00:26 435.000/436.395/437.385
TISAT 1 21 Nov 21:54:48 21:57:38 18° 64° (ENE) 22:00:29 437.305
ANTELSAT 21 Nov 21:55:19 21:59:20 34° 97° (E) 22:03:24 437.575/2403.000
Oscar 11 21 Nov 22:01:20 22:03:08 12° 270° (W) 22:04:58 145.826/435.025
NANOSAT C BR1 21 Nov 22:03:35 22:07:13 27° 96° (E) 22:10:50 145.865
ESTCUBE 1 21 Nov 22:03:41 22:08:14 82° 76° (ENE) 22:12:49 437.505/2401.250
QB50P1 21 Nov 22:12:37 22:16:30 34° 97° (E) 22:20:21 145.935-145.965
AUBIESAT-1 21 Nov 22:22:57 22:24:48 13° 54° (NE) 22:26:42 437.475
VELOX 1 21 Nov 22:23:29 22:27:07 24° 265° (W) 22:30:46 145.980
M-CUBED/EXP-1 PRIME 21 Nov 22:24:21 22:26:32 14° 55° (NE) 22:28:50 437.505
POPSAT HIP 1 21 Nov 22:36:32 22:40:45 65° 101° (ESE) 22:44:55 437.405
BEESAT 3 21 Nov 22:39:47 22:42:31 17° 320° (NW) 22:45:16 437.485
AISAT 21 Nov 22:48:18 22:50:37 14° 269° (W) 22:52:56 437.250
BUGSAT 1 21 Nov 22:48:23 22:52:31 73° 102° (ESE) 22:56:34 437.445
BEESAT 21 Nov 22:50:58 22:53:01 13° 59° (ENE) 22:55:04 436.000
BEESAT 2 21 Nov 22:51:39 22:54:07 15° 322° (NW) 22:56:36 435.950
TIGRISAT 21 Nov 22:52:44 22:57:02 60° 286° (WNW) 23:01:25 435.000
UNISAT 6 21 Nov 23:03:46 23:07:57 45° 288° (WNW) 23:12:13 437.425
AIST 2 21 Nov 23:04:02 23:07:13 20° 318° (NW) 23:10:27 435.215
POLYITAN 1 21 Nov 23:07:11 23:11:21 56° 287° (WNW) 23:15:28 437.675
QB50P2 21 Nov 23:11:14 23:15:21 51° 288° (WNW) 23:19:26 145.880/145.840
CUBEBUG 1 21 Nov 23:18:13 23:21:16 18° 268° (W) 23:24:21 437.445
CUSAT 1 21 Nov 23:19:25 23:23:08 32° 77° (ENE) 23:27:56 437.405
DUCHIFAT 1 21 Nov 23:20:33 23:24:32 41° 289° (WNW) 23:28:28 145.980
SPROUT 21 Nov 23:23:47 23:28:05 63° 259° (W) 23:32:23 437.525
DANDE 21 Nov 23:24:31 23:28:01 29° 77° (ENE) 23:32:29 436.750
TISAT 1 21 Nov 23:29:01 23:33:09 46° 261° (W) 23:37:17 437.305
ANTELSAT 21 Nov 23:32:28 23:36:00 24° 293° (WNW) 23:39:35 437.575/2403.000
NANOSAT C BR1 21 Nov 23:39:30 23:43:03 26° 292° (WNW) 23:46:34 145.865
ITUPSAT 1 21 Nov 23:40:53 23:45:15 36° 68° (ENE) 23:49:38 437.325
ISS 21 Nov 23:41:08 23:42:49 13° 131° (SE) 23:44:30 145.825
QB50P1 21 Nov 23:48:59 23:52:13 22° 294° (WNW) 23:55:25 145.935-145.965
RS-15 21 Nov 23:51:42 00:02:12 44° 39° (NE) 00:13:04 29.354- 29.394
SWISSCUBE 21 Nov 23:53:23 23:58:02 52° 71° (ENE) 00:02:43 437.505
AUBIESAT-1 21 Nov 23:55:14 23:59:08 72° 253° (WSW) 00:03:26 437.475
M-CUBED/EXP-1 PRIME 21 Nov 23:57:10 00:01:01 62° 254° (WSW) 00:05:16 437.505
POPSAT HIP 1 22 Nov 00:14:16 00:16:08 13° 298° (WNW) 00:18:00 437.405
Oscar 19 22 Nov 00:24:58 00:29:03 23° 93° (E) 00:33:07 437.125/150
BEESAT 22 Nov 00:25:22 00:30:10 84° 256° (WSW) 00:35:00 436.000
BUGSAT 1 22 Nov 00:26:19 00:27:25 11° 300° (WNW) 00:28:30 437.445
KKS-1 22 Nov 00:31:44 00:35:22 25° 66° (ENE) 00:39:00 437.445
YUBILEINY 22 Nov 00:36:27 00:39:43 13° 72° (ENE) 00:42:58 435.215
CUSAT 1 22 Nov 01:02:46 01:06:13 24° 265° (W) 01:10:30 437.405
ITAMSAT 1 22 Nov 01:07:40 01:11:42 23° 93° (E) 01:15:43 435.822/435.867
DANDE 22 Nov 01:08:07 01:11:27 24° 264° (W) 01:15:36 436.750
Gurwin Techsat 1B 22 Nov 01:13:26 01:16:25 15° 89° (E) 01:19:22 435.225
ISS 22 Nov 01:15:46 01:19:03 80° 328° (NNW) 01:22:22 145.825
ITUPSAT 1 22 Nov 01:19:11 01:23:12 26° 265° (W) 01:27:14 437.325
MaSat-1 22 Nov 01:22:56 01:25:12 48° 245° (WSW) 01:27:29 437.345
SWISSCUBE 22 Nov 01:32:57 01:36:12 18° 268° (W) 01:39:29 437.505
STARS 22 Nov 01:36:24 01:40:49 80° 75° (ENE) 01:45:14 437.465
Oscar 19 22 Nov 02:03:41 02:08:35 45° 290° (WNW) 02:13:28 437.125/150
RS-15 22 Nov 02:04:12 02:15:16 67° 244° (WSW) 02:26:50 29.354- 29.394
KKS-1 22 Nov 02:07:51 02:11:53 33° 263° (W) 02:15:55 437.445
YUBILEINY 22 Nov 02:26:01 02:34:43 68° 93° (E) 02:43:25 435.215
MOZHAYETS 4 22 Nov 02:40:49 02:43:42 17° 63° (ENE) 02:46:36
AO-7 22 Nov 02:41:46 02:47:49 21° 91° (E) 02:53:49 29.400- 29.500
ITAMSAT 1 22 Nov 02:46:28 02:51:25 47° 290° (WNW) 02:56:20 435.822/435.867
Gurwin Techsat 1B 22 Nov 02:51:36 02:56:55 72° 287° (WNW) 03:02:11 435.225
ISS 22 Nov 02:53:25 02:56:06 22° 347° (NNW) 02:58:47 145.825
HORYU 2 22 Nov 03:12:16 03:16:46 88° 284° (WNW) 03:21:16 437.375
BEESAT 3 22 Nov 03:43:00 03:43:58 11° 33° (NNE) 03:44:55 437.485
BEESAT 2 22 Nov 03:54:06 03:55:47 12° 35° (NE) 03:57:27 435.950
PRISM 22 Nov 03:55:07 03:58:03 19° 64° (ENE) 04:01:00 437.425
AIST 2 22 Nov 04:09:45 04:09:53 10° 31° (NNE) 04:10:02 435.215
CUBESAT XI-V 22 Nov 04:10:53 04:12:22 11° 59° (ENE) 04:13:51 437.345
SO-50 22 Nov 04:13:29 04:17:52 53° 119° (ESE) 04:22:23 436.795
MOZHAYETS 4 22 Nov 04:15:59 04:20:28 56° 260° (W) 04:25:02
RS-15 22 Nov 04:20:08 04:25:27 15° 264° (W) 04:30:52 29.354- 29.394
YUBILEINY 22 Nov 04:24:57 04:32:15 28° 294° (WNW) 04:39:34 435.215
STRAND 1 22 Nov 04:29:00 04:32:38 20° 62° (ENE) 04:36:17 437.568
PCSat 22 Nov 04:29:56 04:35:00 38° 51° (NE) 04:40:01 145.827
ISS 22 Nov 04:31:06 04:33:35 19° 7° (N) 04:36:04 145.825
AO-7 22 Nov 04:33:05 04:41:29 84° 290° (WNW) 04:49:51 29.400- 29.500
Gurwin Techsat 1B 22 Nov 04:34:47 04:35:55 11° 305° (NW) 04:37:04 435.225
JAS-2 22 Nov 04:47:22 04:54:37 58° 99° (E) 05:01:01 435.910
Cubesat XI-IV 22 Nov 04:51:44 04:54:51 16° 90° (E) 04:57:57 437.490
HORYU 2 22 Nov 04:52:09 04:52:43 10° 302° (WNW) 04:53:18 437.375
BEESAT 3 22 Nov 05:18:56 05:23:06 59° 53° (NE) 05:27:12 437.485
PRISM 22 Nov 05:29:21 05:33:18 41° 261° (W) 05:37:20 437.425
AIST 1 22 Nov 05:30:33 05:31:54 11° 66° (ENE) 05:33:14
BEESAT 2 22 Nov 05:30:39 05:34:53 70° 55° (NE) 05:39:02 435.950
CUTE-I 22 Nov 05:33:06 05:38:01 36° 97° (E) 05:42:53 437.470
O/OREOS (USA 219) 22 Nov 05:43:08 05:46:55 27° 104° (ESE) 05:50:42 437.305
CUBESAT XI-V 22 Nov 05:44:21 05:49:04 90° 258° (WSW) 05:53:50 437.345
AIST 2 22 Nov 05:45:20 05:49:33 51° 52° (NE) 05:53:42 435.215
SO-50 22 Nov 05:55:02 05:58:43 23° 319° (NW) 06:02:30 436.795
STRAND 1 22 Nov 06:06:19 06:11:23 57° 259° (W) 06:16:29 437.568
ISS 22 Nov 06:07:36 06:10:49 46° 27° (NNE) 06:14:01 145.825
PCSat 22 Nov 06:13:29 06:18:21 35° 249° (WSW) 06:23:11 145.827
